Location: Nitra
(0.0000°N, 18.0833°E)
Time: 13:55:47
(UTC+01:00)

Ariane H10-3 - Pass Details

Date: 25 September 2022
Orbit: 378 x 34053 km, 3.7° (Epoch: 26 November)

Event Time Altitude Azimuth Distance (km) Brightness Sun altitude
Rises 19:54:40 0° 273° (W) 5,213 9.5 -18.8°
Reaches altitude 10° 19:59:44 10° 278° (W) 2,658 7.5 -20.1°
Maximum altitude 20:04:18 46° 354° (N) 620 3.0 -21.3°
Enters shadow 20:04:21 46° 357° (N) 617 3.0 -21.3°
